Regional Weather Roundup
Issued by NWS

Home | Current Version | Previous Version | Graphics & Text | Print | Product List | Glossary On
Versions: 1 2 3 4 5 6 7 8 9 10 11 12 13 14 15 16 17 18 19 20 21 22 23 24 25 26 27 28 29 30 31 32 33 34 35 36 37 38 39 40 41 42 43 44 45 46 47 48 49 50
000
ASUS45 KPSR 281900
RWRAZ

ARIZONA REGIONAL HOURLY WEATHER ROUNDUP
NATIONAL WEATHER SERVICE PHOENIX AZ
1200 PM MST SAT MAR 28 2015

NOTE: FAIR INDICATES FEW OR NO CLOUDS BELOW 12,000 FEET WITH NO
SIGNIFICANT WEATHER AND/OR OBSTRUCTIONS TO VISIBILITY.

AZZ001>003-036-282000-
NORTHWEST ARIZONA

CITY           SKY/WX    TMP DP  RH WIND       PRES   REMARKS
KINGMAN        SUNNY     82  23  11 SW9G18    30.17S
$$

AZZ004>008-015-016-018-282000-
NORTH CENTRAL ARIZONA

CITY           SKY/WX    TMP DP  RH WIND       PRES   REMARKS
GRAND CANYON   SUNNY     67  17  14 NW8G17    30.32F
WILLIAMS       SUNNY     68  14  12 W9G20     30.39F
PRESCOTT       SUNNY     75  20  12 N6        30.25F
FLAGSTAFF      NOT AVBL
PAYSON         SUNNY     73  19  13 W7        30.28F
PAGE           SUNNY     72  24  16 CALM      30.18F
$$

AZZ009>014-017-282000-
NORTHEAST ARIZONA

CITY           SKY/WX    TMP DP  RH WIND       PRES   REMARKS
WINSLOW        NOT AVBL
SAINT JOHNS    SUNNY     73  16  11 VRB3      30.24F
WINDOW ROCK    SUNNY     72   4   7 W12G21    30.27F
SHOW LOW       SUNNY     72   5   7 SW13G22   30.31F
$$

AZZ023-282000-
GREATER PHOENIX AREA

CITY           SKY/WX    TMP DP  RH WIND       PRES   REMARKS
PHOENIX        SUNNY     86  25  11 N3        30.05F
GLENDALE       SUNNY     86  32  14 NE5       30.07F
DEER VALLEY    SUNNY     85  24  11 S5        30.07F
SCOTTSDALE     SUNNY     86  22   9 S6        30.08F
MESA-FALCON    SUNNY     84  21  10 VRB7        N/A
MESA-GATEWAY   SUNNY     82  27  13 CALM      30.09F
CHANDLER       SUNNY     84  27  12 CALM      30.07F
$$

AZZ027-028-282000-
SOUTHWEST MARICOPA COUNTY AND PINAL COUNTY

CITY           SKY/WX    TMP DP  RH WIND       PRES   REMARKS
CASA GRANDE    SUNNY     86  28  12 CALM      30.06F
$$

AZZ503-504-507>509-282000-
SOUTHEAST ARIZONA

CITY           SKY/WX    TMP DP  RH WIND       PRES   REMARKS
TUCSON         SUNNY     88  17   7 VRB5      30.15F
RYAN FIELD       N/A     88  27  11 N5        30.13F
NOGALES        SUNNY     84  17   8 MISG      30.19F
SAFFORD        SUNNY     81  22  11 VRB5      30.14F
$$

AZZ020-021-025-026-031-282000-
SOUTHWEST ARIZONA

CITY           SKY/WX    TMP DP  RH WIND       PRES   REMARKS
YUMA           NOT AVBL
$$

CAZ031-033-041-043-047-048-061-282000-
SOUTHERN CALIFORNIA

CITY           SKY/WX    TMP DP  RH WIND       PRES   REMARKS
DOWNTOWN L.A.  SUNNY     79  56  45 CALM      30.06S
L.A. AIRPORT   MOSUNNY   66  59  78 W12       30.09R
SAN DIEGO      MOSUNNY   70  57  63 NW12      30.09R
BURBANK        SUNNY     81  46  29 SE7       30.07S
ONTARIO        SUNNY     83  34  17 SW6       30.07F
RIVERSIDE      SUNNY     84  30  14 W6        30.06F
PALM SPRINGS   SUNNY     93  24   8 E5        30.01F
EL CENTRO NAS  SUNNY     90  39  16 VRB3      29.98F
IMPERIAL       SUNNY     92  30  11 N5        29.98F
BLYTHE         SUNNY     87  34  15 E5        30.01F
$$

NVZ020-UTZ003-282000-
SOUTHERN NEVADA-UTAH

CITY           SKY/WX    TMP DP  RH WIND       PRES   REMARKS
LAS VEGAS      NOT AVBL
SALT LAKE CITY MOSUNNY   71  29  21 N3        30.13F
$$

NMZ009-TXZ055-282000-
NEW MEXICO-WEST TEXAS

CITY           SKY/WX    TMP DP  RH WIND       PRES   REMARKS
ALBUQUERQUE    SUNNY     72  21  14 N3        30.22F
EL PASO        SUNNY     80  17   9 CALM      30.15F
$$


........................KEY........................
SKY/WX - SKY CONDITION/WEATHER
TMP    - TEMPERATURE IN FAHRENHEIT
DP     - DEW POINT IN FAHRENHEIT
RH     - RELATIVE HUMIDITY IN PERCENT
WIND   - DIRECTION AND SPEED IN MILES PER HOUR (MPH)
VRB    - VARIABLE WIND DIRECTION
PRES   - MEAN SEA LEVEL PRESSURE IN INCHES OF MERCURY
         F - FALLING PRESSURE   R - RISING PRESSURE
         S - STEADY PRESSURE
VSB    - VISIBILITY IN MILES
HX     - HEAT INDEX IN FAHRENHEIT
WCI    - WIND CHILL INDEX IN FAHRENHEIT
TC     - TEMPERATURE IN CELSIUS WHICH IS ALSO KNOWN AS
         TEMPERATURE IN CENTIGRADE
AFB    - AIR FORCE BASE
         LUKE AFB IS LUKE AIR FORCE BASE
         DAVIS-MONTHAN IS DAVIS-MONTHAN AIR FORCE BASE
NAS    - NAVAL AIR STATION
         EL CENTRO NAS IS EL CENTRO NAVAL AIR STATION
N/A    - NOT AVAILABLE




USA.gov is the U.S. government's official web portal to all federal, state and local government web resources and services.